When you browse on this site, cookies collect data to enhance your experience and personalize the content and advertising you see.
Visit our Privacy Policy to learn more. By continuing to use the site, you agree to this use of cookies and data.
EN

Hourly Weather Vyuzhnyy

Today, 20 September, Sunday

Time Temperature Precipitation Wind Pressure Humidity
00:00 +11°C° 0 mm 6 mps 713 mmHg 45%
01:00 +10°C° 0 mm 6 mps 712 mmHg 52%
02:00 +9°C° 0.1 mm 6 mps 711 mmHg 57%
03:00 +9°C° 0.1 mm 7 mps 710 mmHg 62%
04:00 +7°C° 0 mm 8 mps 709 mmHg 70%
05:00 +7°C° 0.4 mm 8 mps 708 mmHg 74%
06:00 +8°C° 0.4 mm 7 mps 708 mmHg 78%
07:00 +8°C° 0.4 mm 7 mps 708 mmHg 82%
08:00 +7°C° 0.2 mm 9 mps 708 mmHg 81%
09:00 +7°C° 0.2 mm 10 mps 709 mmHg 81%
10:00 +7°C° 0.2 mm 12 mps 710 mmHg 81%
11:00 +7°C° 0.1 mm 11 mps 710 mmHg 78%
12:00 +6°C° 0.1 mm 11 mps 711 mmHg 76%
13:00 +6°C° 0.1 mm 10 mps 712 mmHg 74%
14:00 +6°C° 0 mm 10 mps 713 mmHg 71%
15:00 +6°C° 0 mm 9 mps 714 mmHg 68%
16:00 +6°C° 0 mm 8 mps 715 mmHg 65%
17:00 +6°C° 0 mm 7 mps 715 mmHg 66%
18:00 +5°C° 0 mm 6 mps 715 mmHg 67%
19:00 +6°C° 0 mm 5 mps 716 mmHg 68%
20:00 +5°C° 0 mm 5 mps 716 mmHg 73%
21:00 +5°C° 0 mm 5 mps 716 mmHg 79%
22:00 +4°C° 0 mm 4 mps 716 mmHg 84%
23:00 +4°C° 0 mm 4 mps 716 mmHg 86%

Tomorrow, 21 September, Monday

Time Temperature Precipitation Wind Pressure Humidity
00:00 +3°C° 0 mm 4 mps 716 mmHg 87%
01:00 +3°C° 0 mm 4 mps 716 mmHg 89%
02:00 +3°C° 1.1 mm 4 mps 716 mmHg 89%
03:00 +3°C° 1.1 mm 4 mps 716 mmHg 90%
04:00 +3°C° 1.1 mm 5 mps 716 mmHg 91%
05:00 +3°C° 0.3 mm 5 mps 717 mmHg 89%
06:00 +3°C° 0.3 mm 6 mps 717 mmHg 88%
07:00 +3°C° 0.3 mm 7 mps 717 mmHg 87%
08:00 +3°C° 0.1 mm 7 mps 718 mmHg 82%
09:00 +4°C° 0.1 mm 7 mps 719 mmHg 78%
10:00 +4°C° 0.1 mm 8 mps 720 mmHg 73%
11:00 +5°C° 0.1 mm 8 mps 720 mmHg 69%
12:00 +6°C° 0.1 mm 8 mps 720 mmHg 66%
13:00 +6°C° 0.1 mm 8 mps 721 mmHg 62%
14:00 +6°C° 0.1 mm 8 mps 721 mmHg 61%
15:00 +6°C° 0.1 mm 8 mps 721 mmHg 59%
16:00 +6°C° 0.1 mm 8 mps 722 mmHg 58%
17:00 +5°C° 0 mm 7 mps 722 mmHg 62%
18:00 +4°C° 0 mm 6 mps 722 mmHg 67%
19:00 +5°C° 0 mm 5 mps 722 mmHg 71%
20:00 +5°C° 0 mm 5 mps 723 mmHg 73%
21:00 +5°C° 0 mm 5 mps 723 mmHg 75%
22:00 +3°C° 0 mm 5 mps 723 mmHg 77%
23:00 +3°C° 0 mm 6 mps 723 mmHg 79%

Day after tomorrow, 22 September, Tuesday

Time Temperature Precipitation Wind Pressure Humidity
00:00 +3°C° 0 mm 6 mps 723 mmHg 80%
01:00 +3°C° 0 mm 6 mps 723 mmHg 82%
02:00 +4°C° 0.1 mm 6 mps 723 mmHg 82%
03:00 +4°C° 0.1 mm 6 mps 723 mmHg 81%
04:00 +5°C° 0.1 mm 5 mps 723 mmHg 81%
05:00 +4°C° 0 mm 6 mps 723 mmHg 80%
06:00 +4°C° 0 mm 6 mps 723 mmHg 79%
07:00 +4°C° 0 mm 6 mps 723 mmHg 78%
08:00 +5°C° 0 mm 6 mps 723 mmHg 74%
09:00 +6°C° 0 mm 7 mps 723 mmHg 70%
10:00 +8°C° 0 mm 7 mps 724 mmHg 66%
11:00 +8°C° 0 mm 7 mps 724 mmHg 67%
12:00 +8°C° 0 mm 7 mps 724 mmHg 68%
13:00 +9°C° 0 mm 6 mps 724 mmHg 69%
14:00 +9°C° 0 mm 7 mps 724 mmHg 68%
15:00 +10°C° 0 mm 7 mps 724 mmHg 68%
16:00 +10°C° 0 mm 7 mps 724 mmHg 67%
17:00 +9°C° 0 mm 6 mps 724 mmHg 71%
18:00 +8°C° 0 mm 5 mps 724 mmHg 74%
19:00 +8°C° 0 mm 4 mps 724 mmHg 78%
20:00 +8°C° 0 mm 5 mps 724 mmHg 78%
21:00 +8°C° 0 mm 5 mps 724 mmHg 77%
22:00 +7°C° 0 mm 5 mps 723 mmHg 77%
23:00 +8°C° 0 mm 6 mps 723 mmHg 78%

23 September, Wednesday

Time Temperature Precipitation Wind Pressure Humidity
00:00 +8°C° 0 mm 7 mps 722 mmHg 79%
01:00 +7°C° 0 mm 8 mps 722 mmHg 80%
02:00 +7°C° 0 mm 8 mps 721 mmHg 79%
03:00 +7°C° 0 mm 8 mps 721 mmHg 78%
04:00 +7°C° 0 mm 9 mps 720 mmHg 78%
05:00 +7°C° 0 mm 9 mps 720 mmHg 78%
06:00 +8°C° 0 mm 9 mps 720 mmHg 78%
07:00 +8°C° 0 mm 9 mps 720 mmHg 78%
08:00 +10°C° 0 mm 9 mps 719 mmHg 77%
09:00 +10°C° 0 mm 9 mps 719 mmHg 76%
10:00 +11°C° 0 mm 10 mps 719 mmHg 75%
11:00 +12°C° 0 mm 10 mps 719 mmHg 71%
12:00 +12°C° 0 mm 10 mps 719 mmHg 68%
13:00 +13°C° 0 mm 10 mps 719 mmHg 65%
14:00 +12°C° 0 mm 9 mps 720 mmHg 62%
15:00 +12°C° 0 mm 9 mps 720 mmHg 59%
16:00 +12°C° 0 mm 9 mps 720 mmHg 56%
17:00 +11°C° 0 mm 8 mps 721 mmHg 58%
18:00 +10°C° 0 mm 7 mps 721 mmHg 60%
19:00 +9°C° 0 mm 5 mps 722 mmHg 61%
20:00 +8°C° 0 mm 5 mps 722 mmHg 64%
21:00 +7°C° 0 mm 4 mps 723 mmHg 66%
22:00 +6°C° 0 mm 4 mps 724 mmHg 69%
23:00 +5°C° 0 mm 4 mps 724 mmHg 71%

24 September, Thursday

Time Temperature Precipitation Wind Pressure Humidity
00:00 +5°C° 0 mm 3 mps 725 mmHg 74%
01:00 +4°C° 0 mm 3 mps 725 mmHg 76%
02:00 +4°C° 0 mm 3 mps 726 mmHg 77%
03:00 +3°C° 0 mm 3 mps 727 mmHg 78%
04:00 +3°C° 0 mm 3 mps 727 mmHg 79%
05:00 +4°C° 0 mm 2 mps 728 mmHg 79%
06:00 +4°C° 0 mm 2 mps 729 mmHg 78%
07:00 +4°C° 0 mm 2 mps 729 mmHg 78%
08:00 +6°C° 0 mm 2 mps 730 mmHg 69%
09:00 +7°C° 0 mm 2 mps 730 mmHg 60%
10:00 +9°C° 0 mm 3 mps 730 mmHg 51%
11:00 +10°C° 0 mm 2 mps 731 mmHg 47%
12:00 +13°C° 0 mm 2 mps 731 mmHg 42%
13:00 +14°C° 0 mm 2 mps 731 mmHg 38%
14:00 +14°C° 0 mm 2 mps 731 mmHg 37%
15:00 +15°C° 0 mm 2 mps 731 mmHg 36%
16:00 +15°C° 0 mm 2 mps 731 mmHg 34%
17:00 +14°C° 0 mm 2 mps 731 mmHg 40%
18:00 +12°C° 0 mm 2 mps 731 mmHg 47%
19:00 +10°C° 0 mm 1 mps 732 mmHg 53%
20:00 +10°C° 0 mm 1 mps 732 mmHg 56%
21:00 +9°C° 0 mm 1 mps 732 mmHg 59%
22:00 +9°C° 0 mm 1 mps 732 mmHg 62%
23:00 +8°C° 0 mm 1 mps 732 mmHg 63%

25 September, Friday

Time Temperature Precipitation Wind Pressure Humidity
00:00 +8°C° 0 mm 1 mps 732 mmHg 64%
01:00 +7°C° 0 mm 1 mps 732 mmHg 65%
02:00 +7°C° 0 mm 1 mps 733 mmHg 66%
03:00 +7°C° 0 mm 1 mps 733 mmHg 66%
04:00 +7°C° 0 mm 1 mps 733 mmHg 66%
05:00 +7°C° 0 mm 1 mps 733 mmHg 66%
06:00 +7°C° 0 mm 1 mps 733 mmHg 67%
07:00 +7°C° 0 mm 1 mps 733 mmHg 67%
08:00 +8°C° 0 mm 2 mps 733 mmHg 60%
09:00 +9°C° 0 mm 2 mps 734 mmHg 53%
10:00 +11°C° 0 mm 3 mps 734 mmHg 47%
11:00 +12°C° 0 mm 3 mps 734 mmHg 44%
12:00 +14°C° 0 mm 2 mps 734 mmHg 42%
13:00 +15°C° 0 mm 2 mps 734 mmHg 39%
14:00 +15°C° 0 mm 2 mps 734 mmHg 39%
15:00 +15°C° 0 mm 2 mps 734 mmHg 39%
16:00 +15°C° 0 mm 2 mps 734 mmHg 39%
17:00 +14°C° 0 mm 2 mps 733 mmHg 44%
18:00 +12°C° 0 mm 2 mps 733 mmHg 49%
19:00 +10°C° 0 mm 3 mps 733 mmHg 54%
20:00 +9°C° 0 mm 3 mps 734 mmHg 58%
21:00 +9°C° 0 mm 3 mps 734 mmHg 61%
22:00 +8°C° 0 mm 3 mps 734 mmHg 65%
23:00 +7°C° 0 mm 2 mps 734 mmHg 66%
Show more